RH
100 100 100 98 94 93 94 94 94 93 90 88 87 85 84 83 81 81 82 83 83 85 85 85 85 87 89 89 87 87 87 87 88 88 88 87 87 87 86 85 81 71 62 64 70 69 68 70 71 72 74 77 80 84 87 89 89 91 93 94 95 96 96
100 100 100 95 92 92 94 95 95 92 88 87 88 88 88 88 88 89 90 90 91 92 92 92 92 94 96 96 95 95 95 94 94 92 90 89 87 85 85 83 80 74 65 62 66 68 67 68 69 69 70 73 74 75 76 78 77 79 81 82 83 84 83
100 100 100 97 95 95 96 97 97 95 92 92 93 94 95 95 95 95 95 95 96 97 97 97 96 97 98 98 96 95 95 94 92 89 87 84 82 80 78 77 74 71 66 62 62 63 63 63 64 64 65 69 72 73 74 74 74 75 75 76 78 78 77
100 100 100 100 100 99 99 99 98 97 95 94 94 95 95 95 95 96 97 98 99 100 100 100 99 99 99 98 96 95 94 92 89 86 82 79 76 74 72 72 71 69 67 63 61 60 60 60 59 59 59 60 63 67 71 73 75 75 74 74 74 74 74
100 100 100 100 101 101 100 99 98 97 96 95 94 93 93 94 96 98 100 100 99 99 99 100 100 100 99 98 97 95 93 90 86 82 77 72 69 67 65 65 64 63 63 62 60 59 59 58 56 56 56 56 56 59 63 67 70 73 75 76 75 73 72
100 100 100 100 100 100 100 100 99 98 98 98 97 97 97 97 98 99 98 97 96 97 98 99 98 97 96 94 91 88 85 81 77 72 68 65 62 60 59 58 57 56 56 55 54 53 53 53 52 51 51 52 53 55 58 60 63 65 68 73 77 77 77
100 100 100 100 100 100 100 100 100 100 100 100 100 100 100 99 98 98 97 96 97 97 96 94 92 89 87 85 83 80 76 72 68 64 61 59 57 55 53 52 51 50 49 48 47 47 46 45 44 44 43 43 43 45 47 51 55 57 60 66 71 74 76
100 100 100 100 100 100 100 100 100 100 100 100 99 98 97 97 96 95 94 94 93 92 89 86 83 80 78 76 73 70 66 63 60 57 54 52 49 46 44 43 42 41 40 40 39 39 39 38 37 37 36 34 34 33 33 34 36 40 44 49 53 57 62
100 100 100 100 100 100 100 100 100 101 101 101 99 97 96 96 94 92 90 89 87 84 81 78 76 73 69 66 63 60 57 55 52 49 46 43 40 37 34 32 31 29 29 28 29 29 28 27 27 27 25 25 25 24 23 22 21 23 24 26 29 33 37
100 100 100 99 99 99 98 98 98 97 95 94 92 90 89 90 89 87 85 83 80 76 73 70 67 63 60 56 53 50 47 44 42 39 36 34 31 28 26 23 21 20 20 19 19 19 18 18 18 17 17 17 16 16 16 15 15 16 15 14 15 17 19
101 100 99 97 97 96 95 94 92 90 87 85 83 82 80 80 80 80 79 77 73 69 65 61 58 54 51 47 43 39 35 31 29 26 25 23 22 20 19 18 17 16 16 16 16 15 15 15 14 14 14 14 14 14 14 14 14 13 13 12 12 13 13
101 101 100 99 99 99 99 97 96 94 92 90 87 85 82 79 76 74 73 69 64 60 55 51 47 42 38 34 31 28 25 22 21 19 19 18 18 18 18 17 18 17 17 17 17 16 16 16 16 16 16 16 16 16 15 15 15 15 14 14 13 12 12
99 99 98 98 97 96 95 94 92 89 86 82 79 75 72 69 65 61 57 52 46 42 39 35 32 28 25 23 22 21 21 20 19 19 19 19 19 19 19 20 20 20 20 20 19 18 18 18 19 19 18 18 18 18 17 17 16 16 16 15 15 14 13
93 91 90 88 86 84 82 79 76 72 68 64 60 56 53 51 47 41 37 33 29 27 25 23 22 21 21 21 22 22 22 22 22 21 21 21 21 21 21 21 21 22 22 22 22 21 19 20 21 20 20 20 20 20 20 19 19 19 18 17 16 15 15
80 77 75 72 69 66 62 59 55 52 48 45 41 38 36 33 30 27 25 23 22 22 22 22 22 21 21 21 22 22 23 22 22 22 21 21 21 21 22 21 21 22 23 23 22 22 20 20 21 21 21 22 22 22 21 21 20 20 19 19 18 17 17
60 57 54 50 47 45 42 39 37 35 33 32 30 29 27 25 24 23 22 23 23 22 22 22 22 21 21 21 22 23 24 24 23 23 22 22 22 22 22 22 23 24 24 24 23 23 22 22 22 23 23 22 23 23 22 22 21 20 20 20 19 18 18
42 40 39 36 34 33 32 32 31 29 29 29 28 27 26 25 24 23 23 24 24 23 23 23 24 24 24 24 25 26 26 26 26 25 24 24 24 24 24 24 26 27 26 26 25 25 24 24 24 24 24 24 24 23 22 22 21 21 21 20 20 19 19
34 34 34 33 33 32 31 32 32 31 30 30 30 28 27 26 25 25 25 25 26 26 26 26 28 29 29 28 29 30 30 30 30 28 27 28 27 27 28 28 29 29 28 28 27 26 26 25 25 25 24 24 24 23 23 23 22 21 21 21 20 19 18
30 31 31 31 31 31 31 31 32 32 31 31 31 30 29 28 27 27 28 29 30 31 32 33 34 36 36 34 33 33 33 34 34 32 32 32 31 30 30 31 30 29 28 28 27 26 25 24 24 24 23 23 22 22 22 22 22 22 22 22 21 20 20
27 27 27 28 28 29 29 29 29 31 32 31 32 32 30 29 30 31 32 34 35 37 39 40 41 41 41 40 38 37 37 37 37 36 34 33 32 32 31 30 29 28 27 26 24 23 22 21 21 20 20 20 20 20 21 21 22 24 25 25 24 22 22
25 25 26 28 29 30 31 31 30 32 33 34 35 35 34 34 35 37 38 38 40 42 44 46 46 45 45 43 41 40 39 39 38 37 35 34 32 30 29 27 26 24 22 21 20 19 18 18 18 18 18 19 20 21 22 22 22 24 27 31 30 28 28
25 25 26 29 31 33 34 34 34 34 37 39 40 41 42 42 43 44 44 42 42 45 47 48 48 48 47 46 44 43 41 40 38 36 33 31 28 26 24 22 21 19 18 18 18 18 18 19 21 22 23 24 26 27 28 28 27 27 28 31 34 36 36
26 27 27 29 32 35 37 37 37 38 41 44 46 46 48 48 49 51 49 46 46 47 49 50 51 51 50 48 46 43 40 37 33 30 28 25 23 21 20 19 18 18 19 20 21 22 23 25 27 29 30 32 34 36 37 36 35 35 35 35 36 38 41
29 29 29 31 34 38 42 43 42 44 48 50 50 51 54 56 57 57 55 53 52 53 54 54 54 53 51 49 45 40 35 31 28 25 23 21 20 20 21 21 23 24 26 27 28 29 30 32 34 36 37 39 41 42 42 41 41 42 43 45 44 43 43
34 35 35 37 40 45 50 52 53 55 59 60 59 61 63 65 65 65 65 63 61 61 60 58 55 54 51 46 40 34 29 27 24 23 22 22 23 25 27 29 30 31 32 33 34 35 37 38 40 41 42 44 46 46 47 47 47 48 49 50 51 48 47
45 46 47 50 53 56 60 63 65 67 71 72 71 71 72 73 74 75 75 72 68 66 63 59 56 52 45 38 32 28 26 24 23 23 25 27 29 31 31 33 33 34 35 36 37 39 40 41 43 45 46 49 50 51 54 56 57 56 56 56 55 52 50
55 56 58 61 64 66 69 73 78 81 83 82 80 79 81 82 83 83 80 75 71 67 63 58 52 44 36 31 29 27 26 25 26 28 30 30 31 32 32 34 35 36 37 37 38 41 42 44 46 48 50 53 55 57 60 63 64 64 62 62 62 59 55
59 61 63 66 69 72 76 82 88 91 91 90 87 87 88 89 88 86 81 76 71 65 59 51 42 35 31 30 30 29 30 30 31 31 30 29 29 29 31 34 36 36 37 39 42 44 46 48 50 53 55 58 60 62 65 68 70 68 67 67 68 64 59
59 62 66 69 73 78 82 87 93 95 94 94 94 94 94 93 91 87 81 74 66 57 49 41 35 33 34 33 34 35 34 32 29 26 24 24 25 27 30 34 36 37 41 45 48 49 50 52 54 55 57 60 62 66 71 75 76 74 73 73 71 67 63
63 68 72 75 79 85 89 91 95 97 97 96 96 97 98 96 91 85 76 65 54 45 39 35 34 35 36 36 36 33 29 25 22 20 20 21 23 27 31 34 38 43 49 52 53 53 54 56 57 58 61 64 67 71 77 81 82 80 80 79 75 70 66
73 78 83 84 86 90 93 95 97 98 97 95 94 95 95 92 86 76 63 51 42 37 35 36 36 37 37 34 30 26 22 20 19 19 19 21 25 29 34 39 47 54 57 57 57 58 60 61 62 64 67 70 74 78 82 85 86 86 85 83 79 73 70
84 89 94 96 95 95 95 95 96 94 92 91 90 90 89 84 74 60 47 39 37 35 36 37 38 36 32 28 23 21 21 21 20 20 21 23 27 31 38 47 56 62 63 62 62 63 64 65 67 70 71 74 77 80 84 87 89 90 89 85 80 76 74
96 98 100 100 98 96 94 93 92 89 87 87 88 87 81 70 57 45 38 37 38 38 39 39 37 31 26 23 22 23 23 22 21 21 23 24 27 32 41 53 61 65 66 67 67 67 68 69 71 73 74 76 79 81 83 87 90 92 93 90 84 79 78
101 101 100 98 97 96 94 91 88 86 85 86 85 77 65 51 41 37 39 41 41 40 40 36 31 26 24 24 25 24 23 22 22 22 23 25 27 33 42 52 60 64 66 68 69 71 72 73 73 74 76 77 80 82 83 85 89 93 95 93 89 85 83
103 102 101 100 100 100 97 92 88 87 86 82 73 60 47 38 36 39 42 44 43 40 36 30 26 25 26 27 26 25 24 23 23 23 24 25 27 32 40 48 55 60 62 65 68 71 74 75 75 76 78 79 80 81 83 85 88 93 95 94 91 90 89
104 104 104 104 104 103 99 93 88 83 77 66 54 45 39 37 39 42 44 45 41 35 30 27 26 28 28 27 26 25 24 23 23 23 24 25 26 29 35 42 49 53 56 58 62 67 72 76 77 78 79 80 81 82 84 86 88 91 93 92 92 92 94
Wind_Speed
43 41 39 36 34 33 32 32 32 33 33 33 32 31 30 30 30 30 30 31 32 32 33 33 33 33 33 33 34 34 34 34 34 34 35 36 36 36 37 37 37 40 42 40 37 37 37 36 36 36 36 36 36 37 38 40 41 42 44 45 45 46 46
41 39 37 35 34 34 33 33 33 33 34 33 33 33 32 32 32 33 33 33 34 34 35 36 36 36 35 36 36 36 36 36 37 37 38 39 40 40 41 41 41 42 44 45 43 41 40 40 39 39 39 38 38 39 39 40 42 43 44 45 45 46 46
39 37 36 35 35 34 34 35 35 35 35 35 35 35 35 35 35 35 36 36 37 37 38 38 39 39 38 39 39 39 39 40 40 41 42 43 44 44 45 44 44 45 46 47 47 46 45 43 42 43 42 41 42 42 43 43 44 45 45 46 46 47 47
37 36 36 36 36 36 36 37 37 37 37 37 37 37 37 38 38 39 39 39 39 39 39 40 41 41 41 42 42 42 43 43 44 44 45 46 46 47 47 47 47 48 48 49 50 49 49 48 47 46 46 46 46 46 47 47 47 47 48 48 48 48 48
36 36 37 37 37 37 37 38 38 38 38 38 39 39 40 40 41 42 42 42 41 41 41 42 42 43 43 44 44 45 46 46 47 48 48 49 49 49 50 50 50 50 51 52 53 53 52 52 52 51 51 51 50 50 50 51 51 51 51 51 51 51 51
36 36 37 38 38 38 37 37 38 38 39 39 40 41 41 42 42 43 43 43 43 43 43 44 44 45 45 46 47 47 48 49 49 50 51 51 52 52 52 53 53 53 54 55 56 56 57 57 57 56 56 56 56 55 54 54 55 55 55 55 55 54 53
34 35 35 36 36 37 37 37 37 38 39 39 40 41 41 42 42 42 43 43 44 44 45 45 46 47 48 49 50 50 51 51 52 52 53 54 54 55 55 56 56 57 57 58 58 59 60 61 61 60 60 59 60 60 59 58 59 59 59 58 59 58 57
33 34 34 34 35 35 35 35 36 37 38 39 40 41 41 42 43 44 45 46 46 47 48 49 50 51 52 52 53 53 54 54 54 55 55 56 56 57 57 58 58 59 59 60 61 61 62 63 63 63 63 63 63 64 63 61 61 62 62 62 62 62 61
33 34 34 34 34 34 35 35 36 37 38 39 41 42 43 44 45 47 48 48 49 50 51 52 53 54 54 55 55 56 57 57 58 58 58 59 58 58 59 59 59 60 60 61 62 62 62 63 64 64 64 65 65 66 66 64 64 64 64 64 64 64 64
34 34 35 35 36 37 37 38 39 40 41 43 44 45 46 47 48 49 49 50 50 51 52 53 54 55 56 57 57 58 58 59 59 60 60 60 60 60 60 60 60 60 60 60 61 61 62 63 64 63 63 64 64 64 65 66 66 66 65 65 66 67 66
36 37 38 38 39 39 40 41 42 43 44 46 47 48 49 50 51 51 52 53 53 54 55 55 56 57 57 58 59 59 60 59 59 60 60 60 60 60 60 60 60 60 60 60 61 61 61 62 63 63 62 63 63 62 63 63 64 65 65 65 67 68 67
39 40 40 40 40 41 42 43 44 45 46 47 48 49 50 51 52 52 53 54 55 56 57 57 58 58 58 59 59 59 59 59 59 59 59 59 59 59 59 59 59 60 59 60 60 61 61 61 61 61 61 61 61 62 62 63 63 64 65 65 65 66 66
41 41 41 41 42 42 43 44 45 46 47 48 49 50 51 52 53 53 54 54 55 55 56 57 57 57 56 56 57 57 57 57 57 58 58 58 58 58 58 58 58 59 59 59 60 60 60 60 60 61 60 60 60 61 62 63 63 63 64 65 65 65 64
43 43 43 44 45 45 46 47 47 48 49 50 50 51 52 53 53 53 53 53 53 53 54 54 53 53 53 53 53 53 53 54 54 55 55 55 56 56 57 57 57 57 57 58 58 60 60 60 59 60 60 59 59 60 60 61 62 62 63 65 66 66 65
45 46 46 47 47 48 48 49 49 49 49 49 50 50 51 52 52 51 51 51 51 51 51 51 51 51 51 51 51 51 51 52 52 53 53 54 54 54 55 56 56 56 56 56 57 59 60 59 59 59 59 58 58 59 59 60 61 61 63 64 65 66 66
47 47 47 48 48 48 48 48 48 48 48 48 48 48 49 49 49 49 49 49 49 50 50 50 50 51 51 51 50 50 50 50 51 51 52 52 53 53 53 54 54 54 54 55 56 57 58 58 58 58 58 57 57 57 58 58 60 61 62 62 64 65 65
46 46 46 46 47 46 46 45 46 46 46 46 46 47 47 47 48 48 48 48 48 49 49 49 49 49 50 49 49 49 49 49 50 50 51 51 51 52 52 51 51 51 52 53 54 55 55 55 56 56 56 56 56 56 55 57 60 61 60 61 63 65 64
45 45 45 45 45 45 44 44 44 45 45 45 45 46 46 46 47 47 47 47 47 47 47 47 47 47 48 48 47 47 47 48 48 49 49 49 50 50 49 49 49 50 50 51 52 52 52 53 53 53 54 54 54 53 52 54 57 58 57 59 61 63 64
45 45 45 45 44 44 44 44 43 44 44 44 44 45 46 46 46 46 46 45 45 45 44 44 44 44 45 46 46 46 46 46 46 47 47 47 48 47 47 46 47 48 48 48 49 49 49 50 50 50 51 51 51 51 50 51 53 54 54 56 58 59 60
45 45 44 44 44 44 44 44 43 43 43 43 43 44 45 45 45 45 44 43 42 42 41 41 42 42 43 44 44 44 44 44 45 45 46 46 46 46 45 45 46 46 46 46 46 46 46 47 47 47 47 48 48 48 48 48 48 49 51 53 55 55 56
46 45 45 44 43 43 43 43 43 42 42 42 42 43 43 44 44 43 42 42 40 40 40 40 40 41 41 42 42 43 43 43 43 44 44 45 45 44 44 45 45 45 44 44 44 44 44 44 44 44 44 45 45 45 45 46 46 47 47 49 52 53 54
47 47 46 44 43 42 42 42 42 42 41 41 41 41 42 42 42 41 41 41 40 40 39 39 39 39 40 40 41 41 41 42 42 42 43 43 43 43 43 44 44 43 43 42 42 42 42 42 41 42 42 43 43 44 44 44 45 45 46 47 49 51 53
48 48 47 45 43 42 42 42 43 42 41 41 41 41 41 41 41 41 41 41 41 40 40 39 39 38 38 39 39 39 40 40 40 40 41 41 41 41 41 42 42 41 41 40 40 40 40 40 40 40 41 41 42 43 43 44 44 45 45 46 47 48 50
49 49 48 46 44 42 42 42 43 42 41 41 41 41 41 40 40 40 41 41 41 41 40 39 39 38 38 38 38 38 38 38 38 39 39 39 39 39 39 39 39 38 38 38 38 38 38 38 39 40 40 41 42 43 43 43 43 44 44 45 46 46 48
50 50 49 47 45 43 42 42 41 41 41 41 42 41 40 40 40 40 41 41 41 40 40 39 39 38 37 37 37 37 37 36 37 37 37 37 37 36 36 36 36 36 36 37 37 37 38 38 38 39 40 41 42 43 43 42 42 43 43 44 45 46 47
49 49 49 47 46 44 42 41 40 40 40 41 41 40 40 40 39 39 40 40 40 39 39 39 39 38 37 36 36 36 36 35 35 35 35 35 35 35 35 35 35 36 36 37 37 38 38 39 39 40 40 41 41 42 41 41 41 41 42 43 44 45 46
49 48 48 47 46 44 43 40 39 38 39 39 40 39 39 39 39 38 38 39 39 39 39 38 38 37 35 35 35 35 35 35 34 34 34 34 34 34 34 35 35 36 37 37 38 39 39 40 40 40 40 40 40 40 39 39 39 40 41 41 43 44 44
48 47 46 46 46 44 43 40 38 37 37 38 39 39 38 38 37 37 37 37 38 38 38 37 36 35 34 34 34 34 34 34 34 34 34 34 34 34 34 35 35 37 37 38 39 39 39 39 39 39 39 39 39 39 38 38 38 39 40 40 41 42 43
46 45 45 45 45 44 42 40 37 36 36 37 38 37 37 36 36 35 36 36 36 37 37 36 34 33 33 33 34 34 34 34 34 34 34 34 33 34 34 35 35 36 37 38 39 39 38 38 38 38 38 38 39 39 38 38 38 38 38 39 40 41 41
45 44 44 44 43 42 41 39 36 35 36 36 36 36 36 35 34 35 35 35 35 36 35 33 32 32 33 33 33 34 34 34 34 34 33 33 33 34 34 35 35 36 37 37 37 37 37 37 37 37 37 38 38 38 37 37 37 37 37 38 38 39 39
43 42 42 42 41 39 38 37 35 35 35 35 34 34 34 34 33 33 33 33 34 34 33 32 32 32 32 32 33 33 33 33 33 32 32 32 33 33 34 34 34 35 35 35 35 35 35 35 36 37 37 37 37 37 36 36 36 36 36 36 36 37 37
40 39 39 38 38 37 36 35 34 34 34 34 33 33 32 32 32 32 32 32 32 32 31 31 31 32 31 31 32 32 32 32 32 32 32 32 32 32 32 33 33 33 33 33 33 33 34 34 35 35 36 36 36 35 35 34 34 34 35 35 35 35 35
37 36 36 35 35 35 35 34 34 34 33 33 32 31 31 31 31 30 30 30 30 31 31 31 31 31 31 31 31 31 31 31 31 31 31 31 31 31 31 31 31 32 32 32 32 32 32 32 33 34 34 34 34 34 34 33 33 33 33 34 34 33 33
33 33 33 33 33 33 33 34 33 33 32 32 30 30 30 30 29 28 28 29 30 30 30 30 30 30 31 31 31 30 30 31 31 31 31 31 31 31 30 30 30 30 30 30 31 31 31 31 31 32 33 33 33 33 32 32 32 32 32 33 33 33 33
30 30 31 31 31 31 32 33 33 33 32 30 29 29 29 29 28 27 27 28 29 29 29 30 30 30 30 30 29 29 30 30 30 30 30 31 31 30 30 29 29 29 29 30 30 29 29 30 30 31 31 32 32 31 31 31 31 31 31 32 32 32 32
27 27 28 29 29 31 32 33 33 32 31 30 29 28 28 28 27 26 26 27 27 28 29 29 29 29 29 28 28 28 29 29 29 29 30 30 30 30 29 29 29 29 29 29 29 29 29 29 29 30 30 30 30 30 30 30 30 30 31 31 31 32 32
Wind_Direction
265 262 258 256 255 254 255 257 259 261 263 263 263 261 259 259 260 261 263 266 268 270 271 272 273 273 274 275 275 276 277 278 279 281 282 283 284 284 285 284 284 284 284 283 280 278 276 274 271 268 266 265 263 261 260 259 258 257 256 256 256 256 256
261 257 254 253 253 254 256 258 260 261 261 261 259 258 257 257 259 261 263 266 268 270 271 272 273 274 274 275 275 276 277 278 279 280 281 282 282 282 283 282 282 283 283 283 282 279 277 274 272 270 267 265 264 263 262 261 260 260 259 259 259 258 257
258 254 252 252 252 254 256 259 260 260 259 259 258 258 258 259 261 263 265 267 268 269 271 272 273 274 275 275 276 277 278 279 280 281 281 281 281 281 281 281 281 281 281 282 282 281 278 276 273 271 269 267 265 264 263 261 261 260 260 260 259 259 259
258 256 254 254 254 255 256 257 258 259 259 259 260 261 262 264 265 267 268 269 270 270 271 272 273 273 274 275 275 276 277 278 279 280 280 280 280 280 280 280 280 279 279 279 279 279 278 277 276 273 271 269 267 266 265 264 262 261 260 259 258 258 258
259 258 257 256 255 255 256 257 258 259 260 261 262 264 265 266 268 269 270 271 271 272 272 273 273 274 274 274 275 276 276 277 278 279 279 279 279 279 279 279 279 279 279 279 279 278 277 276 276 275 273 272 270 268 267 266 264 263 261 260 259 258 257
258 258 258 258 257 257 257 257 259 260 261 262 262 264 265 266 267 269 270 271 272 272 273 274 275 275 276 277 277 278 278 278 278 278 278 279 279 279 278 278 278 278 277 278 278 278 278 277 276 275 274 273 271 269 268 267 266 264 263 262 260 259 257
258 259 260 260 260 260 260 260 261 262 263 264 264 265 266 267 269 270 272 273 274 275 276 277 278 278 279 279 279 278 278 278 278 278 278 278 278 278 278 278 277 277 277 277 277 277 277 277 277 276 275 274 272 271 269 267 266 265 264 263 261 260 258
263 264 264 264 264 263 264 265 266 267 268 268 269 270 270 272 273 274 275 276 276 278 279 279 280 280 280 280 280 280 280 279 279 279 279 278 278 277 277 277 276 276 276 276 276 276 276 275 275 276 275 274 274 273 272 270 268 267 266 264 262 261 260
270 270 270 270 269 269 269 269 269 270 270 270 271 271 272 272 273 274 274 275 276 277 277 278 278 278 278 278 278 278 278 278 278 278 278 278 278 278 277 277 276 276 275 275 275 275 274 274 274 274 274 273 273 273 273 272 270 269 268 267 266 264 263
273 273 273 273 272 272 272 271 271 272 272 272 272 272 273 273 273 274 275 275 276 277 277 277 277 278 278 278 278 278 277 277 277 277 277 277 276 276 276 276 276 275 275 275 274 274 274 273 273 273 273 273 272 272 272 272 272 271 270 269 269 268 267
276 275 275 274 273 272 271 271 272 272 272 272 272 271 272 272 273 275 276 277 278 278 278 278 278 278 278 278 277 277 277 276 276 276 276 276 276 276 275 275 275 274 274 274 273 273 273 272 272 272 272 272 273 272 272 272 272 271 270 269 269 268 268
278 277 275 274 273 273 272 273 273 273 273 273 272 272 272 272 273 274 276 276 277 277 277 277 277 277 276 276 275 275 274 274 274 275 275 275 275 275 275 275 275 274 274 273 273 272 272 272 272 272 271 272 272 272 272 271 271 271 271 270 269 268 268
280 279 278 278 278 277 277 277 276 276 276 276 276 276 276 276 276 276 276 276 276 275 275 275 275 274 274 274 273 273 273 273 273 273 273 273 273 274 274 274 274 275 274 274 274 273 273 272 272 272 272 271 271 271 271 271 271 271 271 271 270 270 268
282 282 282 282 282 281 281 280 279 278 278 278 278 277 278 278 278 277 277 276 276 275 275 275 274 274 274 273 273 273 273 272 272 272 272 272 272 272 272 272 273 273 274 274 274 274 273 273 273 272 272 272 273 272 272 272 272 272 272 272 271 271 270
285 285 285 284 283 283 282 281 280 280 279 279 279 279 279 279 279 278 278 277 277 276 276 276 275 275 274 274 273 273 273 272 272 272 272 271 271 271 271 271 271 271 272 272 273 273 273 273 273 274 274 274 274 274 274 274 273 273 272 272 271 270 270
287 286 286 284 283 282 282 281 281 280 280 280 279 279 279 278 278 278 278 277 277 276 276 276 275 275 274 274 273 273 273 273 273 273 272 272 272 271 271 270 271 271 271 271 271 271 271 272 273 273 274 274 274 274 274 274 273 273 273 273 272 271 271
287 285 284 283 282 282 281 281 281 281 280 280 279 279 279 278 278 278 277 276 276 275 275 275 274 274 274 274 274 274 274 274 274 273 273 273 273 272 272 272 272 272 271 271 271 271 271 271 272 272 273 273 273 273 274 274 273 273 274 274 273 273 272
286 286 285 284 284 283 282 282 281 281 281 280 280 279 279 278 277 277 276 275 274 274 274 274 274 274 275 274 274 274 274 274 274 274 274 274 273 273 273 274 273 272 272 272 272 272 272 272 271 271 271 271 271 272 272 273 273 273 274 274 274 273 273
286 286 286 285 285 284 283 282 281 281 280 279 279 278 278 277 276 275 275 274 274 274 274 274 274 274 274 274 274 274 275 275 275 275 275 275 275 275 275 274 273 273 273 273 273 273 273 273 272 271 271 271 270 270 271 272 273 273 273 273 273 273 274
285 285 284 284 283 283 282 281 280 279 279 278 278 277 277 277 276 276 275 275 275 275 274 274 274 274 274 274 275 275 275 275 275 275 275 276 276 276 275 274 274 274 274 273 273 273 273 273 273 272 272 272 271 271 270 270 271 272 273 273 273 273 273
286 285 284 283 283 282 282 281 280 280 279 279 278 278 278 277 277 278 278 278 277 277 276 275 275 275 275 275 276 276 276 276 276 276 276 276 276 276 276 275 275 275 275 275 275 275 274 274 274 274 273 273 273 272 271 270 269 269 270 271 272 273 273
285 285 284 284 284 284 284 283 282 282 281 280 280 279 279 279 280 280 280 280 279 278 277 277 276 276 276 276 276 276 276 276 275 275 276 276 276 277 277 277 277 277 277 277 277 277 277 277 276 276 276 275 275 274 273 273 271 270 268 268 269 271 272
285 284 284 285 285 285 285 284 284 283 283 282 281 280 280 281 281 281 281 280 280 279 278 278 277 277 276 276 276 276 276 275 276 276 276 276 277 277 277 277 278 278 278 278 278 278 279 279 279 278 278 277 277 276 275 275 274 272 271 269 268 268 269
285 285 285 285 285 284 283 283 283 283 282 281 281 280 280 280 280 280 280 280 280 280 279 279 278 277 277 276 276 275 275 276 276 276 276 277 277 277 277 277 278 278 279 279 279 279 280 280 279 279 279 278 278 278 277 276 275 274 273 272 270 268 268
284 284 284 284 283 282 281 281 281 281 281 280 279 279 279 279 279 279 279 280 280 280 280 279 279 278 278 277 277 276 276 276 276 276 276 276 276 276 276 277 278 279 279 280 280 280 280 280 280 279 279 279 279 279 278 277 276 275 274 273 272 271 270
283 283 283 283 282 281 280 280 280 280 279 278 278 278 279 279 279 279 279 280 280 280 280 279 279 279 279 279 278 278 278 277 276 276 275 275 276 276 277 278 280 280 281 281 282 281 281 281 281 280 280 279 279 278 278 277 277 276 276 275 274 273 272
282 282 283 283 282 281 280 280 280 279 278 278 278 278 278 278 279 279 280 280 280 280 280 280 280 280 280 280 280 279 279 278 277 276 275 275 276 277 278 280 281 282 282 283 283 282 282 282 282 281 281 280 279 278 278 277 277 277 277 276 276 275 273
282 282 283 282 282 282 281 281 280 279 279 278 279 278 278 278 279 280 280 281 281 280 280 280 281 281 281 281 281 280 279 278 277 277 277 277 277 278 279 280 281 282 283 283 283 283 283 282 282 282 281 280 280 279 279 279 278 278 278 278 277 276 275
282 283 282 282 282 282 282 282 281 280 279 278 279 279 279 280 281 280 280 280 279 279 279 279 280 280 280 279 279 278 277 277 277 277 278 278 278 279 279 280 281 282 282 283 283 283 283 282 281 281 280 279 279 279 279 278 278 279 278 278 277 276 276
283 283 282 282 282 282 282 282 281 280 279 279 279 279 280 281 280 279 278 278 277 277 277 277 277 277 277 276 275 275 275 275 275 276 277 277 277 278 279 280 281 281 282 282 282 282 282 282 281 280 279 279 278 278 278 278 278 278 278 277 277 277 277
284 284 283 283 283 282 282 282 281 280 279 279 279 279 280 279 279 278 277 277 276 275 275 276 276 275 274 274 273 273 274 274 275 275 275 275 276 276 278 279 280 280 281 281 281 281 281 281 280 280 279 279 278 278 278 278 277 277 277 278 278 279 279
285 284 284 284 284 283 283 282 282 280 280 279 279 280 279 278 278 277 277 276 275 274 275 276 275 274 274 274 273 274 274 274 274 274 273 273 274 275 277 278 279 280 281 281 281 281 281 281 281 280 280 279 279 278 278 277 277 277 277 278 279 281 281
286 286 285 284 284 284 284 283 281 281 280 280 280 279 279 278 277 276 275 274 274 274 275 275 275 274 274 274 274 274 274 273 273 272 272 273 274 275 276 277 279 280 281 282 282 282 282 282 282 281 281 280 279 279 278 277 277 276 276 277 279 282 281
286 286 285 284 284 284 284 283 281 280 280 280 280 280 279 277 275 274 273 273 273 274 275 274 274 274 275 275 275 274 273 272 272 272 273 273 274 275 276 277 278 280 280 281 282 282 283 283 282 281 281 280 280 279 279 278 277 275 275 276 278 280 281
285 284 284 284 284 283 282 281 280 280 280 281 282 281 279 277 274 273 272 273 274 275 275 274 274 275 275 274 274 273 272 272 272 272 273 273 274 275 275 276 278 279 280 281 282 282 283 283 283 282 282 281 280 280 279 278 277 275 274 274 275 277 279
283 283 282 283 282 282 280 279 280 282 283 284 284 282 278 276 275 274 274 275 275 276 275 275 275 275 274 274 273 271 271 271 271 272 273 273 274 275 275 276 278 279 280 281 282 283 283 283 283 283 283 282 282 281 280 279 277 275 274 273 272 273 274